Regional Weather Roundup
Issued by NWS

Home | Current Version | Previous Version | Graphics & Text | Print | Product List | Glossary On
Versions: 1 2 3 4 5 6 7 8 9 10 11 12 13 14 15 16 17 18 19 20 21 22 23 24 25 26 27 28 29 30 31 32 33 34 35 36 37 38 39 40 41 42 43 44 45 46 47 48 49 50
998
ASUS44 KJAN 250710
RWRMS

MISSISSIPPI HOURLY WEATHER ROUNDUP
NATIONAL WEATHER SERVICE JACKSON MS
200 AM CDT FRI JUL 25 2014

NOTE: "FAIR: INDICATES FEW OR NO CLOUDS BELOW 12,000 FEET WITH NO
SIGNIFICANT WEATHER AND/OR OBSTRUCTIONS TO VISIBILITY.

MSZ001>002-007>008-010>013-018>021-025>028-034>036-250800-
NORTHWEST MISSISSIPPI

CITY           SKY/WX    TMP DP  RH WIND       PRES   REMARKS
CLARKSDALE     FAIR      64  63  94 CALM      30.03F
CLEVELAND      FAIR      64  63  96 CALM      30.02F
GREENWOOD      CLEAR     64  62  93 N3        30.02F
GREENVILLE     CLEAR     66  64  93 CALM      30.01F
GRENADA        FAIR      61  59  94 CALM      30.03S
OLIVE BRANCH   CLEAR     64  64 100 CALM      30.03S
OXFORD         FAIR      59  59 100 CALM      30.04F
TUNICA         SUNNY     63  61  94 CALM      30.03F
$$

MSZ003>006-009-014>017-022>024-029>033-037>039-250800-
NORTHEAST MISSISSIPPI

CITY           SKY/WX    TMP DP  RH WIND       PRES   REMARKS
BELMONT        FAIR      63  62  97 CALM      30.01F
COLUMBUS AFB   CLEAR     64  64 100 NW5       30.00F
CORINTH        FAIR      63  61  94 CALM      30.01S FOG
GOLDN TRIANGLE CLEAR     66  61  82 NW5       30.01S
STARKVILLE     FAIR      64  63  94 CALM      30.01S
TUPELO         CLEAR     66  62  87 CALM      30.01F
$$

MSZ040-058-250800-
CENTRAL MISSISSIPPI

CITY           SKY/WX    TMP DP  RH WIND       PRES   REMARKS
JACKSON INTL   CLEAR     75  70  84 N6        30.00F
JACKSON HAWKNS CLEAR     75  66  73 NE3       30.01F
MERIDIAN KEY   MOCLDY    74  72  93 CALM      30.00S
MERIDIAN NAS   CLEAR     71  69  93 CALM      30.01S
RAYMOND        FAIR      72  66  83 CALM      30.02R HAZE
VICKSBURG      CLEAR     74  68  81 NE3       30.01S
$$

MSZ059>079-250800-
SOUTH MISSISSIPPI

CITY           SKY/WX    TMP DP  RH WIND       PRES   REMARKS
BROOKHAVEN     FAIR      73  73 100 N3        30.02F FOG
COLUMBIA       FAIR      73  73 100 CALM      29.98F
HATTIESBURG    FOG       75  73  93 N3        29.99F VSB 3/4
MCCOMB         MOCLDY    75  72  90 CALM      30.01S
NATCHEZ        CLEAR     75  72  88 NE3       30.02R
PINE BELT      PTCLDY    75  72  88 CALM      30.01S
$$

MSZ080>082-250800-
COASTAL MISSISSIPPI

CITY           SKY/WX    TMP DP  RH WIND       PRES   REMARKS
BILOXI         CLEAR     79  74  84 CALM      29.98S
PASCAGOULA     CLEAR     73  72  96 CALM      29.98F
GULFPORT       CLEAR     79  74  84 CALM      29.97S
$$



USA.gov is the U.S. government's official web portal to all federal, state and local government web resources and services.